| time (UTC) | temp F | wind direction | speed MPH | gust MPH | rain 1hr in | rain 24hr in | rain mn in | humidity % | barometer mb |
| 20260902170705 | 70 | 263 | 4.0 | 9.0 | 0.00 | 0.00 | 0.00 | 64 | 1018.2 |
| 20260902165704 | 70 | 257 | 6.0 | 12.0 | 0.00 | 0.00 | 0.00 | 63 | 1018.1 |
| 20260902164704 | 71 | 269 | 5.0 | 8.0 | 0.00 | 0.00 | 0.00 | 61 | 1018.1 |
| 20260902163704 | 71 | 255 | 5.0 | 9.0 | 0.00 | 0.00 | 0.00 | 61 | 1018.0 |
| 20260902162705 | 71 | 247 | 4.0 | 8.0 | 0.00 | 0.00 | 0.00 | 60 | 1018.1 |
| 20260902161704 | 71 | 303 | 4.0 | 9.0 | 0.00 | 0.00 | 0.00 | 60 | 1018.1 |
| 20260902160704 | 72 | 244 | 4.0 | 8.0 | 0.00 | 0.00 | 0.00 | 60 | 1018.2 |
| 20260902155704 | 72 | 256 | 4.0 | 10.0 | 0.00 | 0.00 | 0.00 | 61 | 1018.2 |
| 20260902153706 | 71 | 242 | 5.0 | 10.0 | 0.00 | 0.00 | 0.00 | 59 | 1018.2 |
| 20260902152704 | 72 | 257 | 3.0 | 6.0 | 0.00 | 0.00 | 0.00 | 60 | 1018.2 |
| 20260902151705 | 72 | 251 | 3.0 | 6.0 | 0.00 | 0.00 | 0.00 | 59 | 1018.2 |
| 20260902150704 | 72 | 220 | 3.0 | 7.0 | 0.00 | 0.00 | 0.00 | 61 | 1018.2 |
| 20260902145705 | 72 | 263 | 3.0 | 7.0 | 0.00 | 0.00 | 0.00 | 60 | 1018.3 |
| 20260902144705 | 73 | 255 | 5.0 | 8.0 | 0.00 | 0.00 | 0.00 | 60 | 1018.2 |
| 20260902142705 | 73 | 251 | 4.0 | 9.0 | 0.00 | 0.00 | 0.00 | 58 | 1018.3 |
| 20260902140705 | 75 | 261 | 6.0 | 11.0 | 0.00 | 0.00 | 0.00 | 56 | 1018.2 |
| 20260902135705 | 74 | 257 | 4.0 | 9.0 | 0.00 | 0.00 | 0.00 | 57 | 1018.2 |
| 20260902133705 | 75 | 256 | 5.0 | 12.0 | 0.00 | 0.00 | 0.00 | 57 | 1018.3 |
| 20260902132705 | 76 | 263 | 6.0 | 12.0 | 0.00 | 0.00 | 0.00 | 55 | 1018.3 |
| 20260902131705 | 75 | 305 | 4.0 | 13.0 | 0.00 | 0.00 | 0.00 | 55 | 1018.2 |
| 20260902130705 | 74 | 240 | 5.0 | 10.0 | 0.00 | 0.00 | 0.00 | 58 | 1018.2 |
| 20260902125705 | 74 | 294 | 5.0 | 12.0 | 0.00 | 0.00 | 0.00 | 56 | 1018.3 |
| 20260902124705 | 72 | 251 | 5.0 | 10.0 | 0.00 | 0.00 | 0.00 | 59 | 1018.3 |
| 20260902122705 | 72 | 257 | 6.0 | 12.0 | 0.00 | 0.00 | 0.00 | 60 | 1018.5 |
| 20260902114705 | 71 | 260 | 6.0 | 12.0 | 0.00 | 0.00 | 0.00 | 62 | 1018.7 |
| 20260902113705 | 72 | 235 | 4.0 | 8.0 | 0.00 | 0.00 | 0.00 | 62 | 1018.6 |
| 20260902112706 | 71 | 284 | 6.0 | 12.0 | 0.00 | 0.00 | 0.00 | 61 | 1018.9 |
| 20260902110706 | 71 | 251 | 5.0 | 10.0 | 0.00 | 0.00 | 0.00 | 64 | 1018.9 |
| 20260902104706 | 71 | 318 | 3.0 | 8.0 | 0.00 | 0.00 | 0.00 | 66 | 1018.9 |
| 20260902103706 | 71 | 310 | 4.0 | 9.0 | 0.00 | 0.00 | 0.00 | 65 | 1018.9 |
| 20260902101706 | 70 | 267 | 3.0 | 13.0 | 0.00 | 0.00 | 0.00 | 66 | 1018.8 |
| 20260902100706 | 70 | 207 | 4.0 | 9.0 | 0.00 | 0.00 | 0.00 | 67 | 1018.8 |
| 20260902095706 | 69 | 195 | 5.0 | 12.0 | 0.00 | 0.00 | 0.00 | 69 | 1018.8 |
| 20260902094706 | 68 | 187 | 4.0 | 8.0 | 0.00 | 0.00 | 0.00 | 71 | 1018.9 |
| 20260902093706 | 68 | 260 | 6.0 | 10.0 | 0.00 | 0.00 | 0.00 | 71 | 1019.0 |
| 20260902092706 | 68 | 254 | 5.0 | 11.0 | 0.00 | 0.00 | 0.00 | 73 | 1018.8 |
| 20260902091706 | 68 | 238 | 4.0 | 11.0 | 0.00 | 0.00 | 0.00 | 72 | 1018.8 |
| 20260902090706 | 68 | 269 | 4.0 | 8.0 | 0.00 | 0.00 | 0.00 | 71 | 1018.8 |
| 20260902085707 | 67 | 238 | 4.0 | 9.0 | 0.00 | 0.03 | 0.00 | 71 | 1018.8 |
| 20260902084706 | 67 | 238 | 5.0 | 12.0 | 0.00 | 0.03 | 0.00 | 71 | 1018.9 |
| 20260902083706 | 67 | 270 | 7.0 | 14.0 | 0.00 | 0.03 | 0.00 | 72 | 1018.8 |
| 20260902082706 | 67 | 191 | 5.0 | 10.0 | 0.00 | 0.03 | 0.00 | 74 | 1018.7 |
| 20260902081707 | 66 | 242 | 6.0 | 11.0 | 0.00 | 0.03 | 0.00 | 74 | 1018.7 |
| 20260902080707 | 65 | 262 | 4.0 | 10.0 | 0.00 | 0.03 | 0.00 | 75 | 1018.6 |
| 20260902075707 | 65 | 191 | 3.0 | 7.0 | 0.00 | 0.03 | 0.00 | 75 | 1018.7 |
| 20260902073707 | 63 | 249 | 3.0 | 7.0 | 0.00 | 0.03 | 0.00 | 81 | 1018.6 |
| 20260902072707 | 62 | 255 | 3.0 | 6.0 | 0.00 | 0.03 | 0.00 | 81 | 1018.5 |
| 20260902065707 | 60 | 257 | 4.0 | 9.0 | 0.00 | 0.03 | 0.00 | 86 | 1018.7 |
| 20260902063707 | 58 | 225 | 1.0 | 4.0 | 0.00 | 0.03 | 0.00 | 91 | 1018.5 |
| 20260902061707 | 57 | 230 | 1.0 | 3.0 | 0.00 | 0.03 | 0.00 | 91 | 1018.4 |
| 20260902060707 | 57 | 230 | 0.0 | 1.0 | 0.00 | 0.03 | 0.00 | 91 | 1018.3 |
| 20260902055707 | 57 | 230 | 1.0 | 4.0 | 0.00 | 0.03 | 0.00 | 91 | 1018.1 |
| 20260902053707 | 56 | 313 | 0.0 | 2.0 | 0.00 | 0.03 | 0.00 | 91 | 1018.2 |
| 20260902052707 | 56 | 312 | 0.0 | 0.0 | 0.00 | 0.03 | 0.00 | 90 | 1018.2 |
| 20260902051707 | 56 | 312 | 0.0 | 0.0 | 0.00 | 0.03 | 0.00 | 90 | 1018.2 |
| 20260902045708 | 56 | 312 | 0.0 | 0.0 | 0.00 | 0.03 | 0.00 | 90 | 1018.1 |
| 20260902044707 | 56 | 312 | 0.0 | 0.0 | 0.00 | 0.03 | 0.00 | 89 | 1018.0 |
| 20260902042707 | 57 | 312 | 0.0 | 0.0 | 0.00 | 0.03 | 0.00 | 89 | 1018.1 |
| 20260902041707 | 57 | 312 | 0.0 | 0.0 | 0.00 | 0.03 | 0.00 | 89 | 1018.1 |
| 20260902040707 | 57 | 312 | 0.0 | 0.0 | 0.00 | 0.03 | 0.00 | 90 | 1017.9 |
| 20260902034708 | 57 | 312 | 0.0 | 0.0 | 0.00 | 0.03 | 0.00 | 89 | 1018.0 |
| 20260902033708 | 57 | 312 | 0.0 | 0.0 | 0.00 | 0.03 | 0.00 | 89 | 1018.1 |
| 20260902032708 | 57 | 312 | 0.0 | 0.0 | 0.00 | 0.03 | 0.00 | 89 | 1018.1 |
| 20260902030708 | 57 | 312 | 0.0 | 0.0 | 0.00 | 0.03 | 0.00 | 90 | 1018.1 |
| 20260902024708 | 58 | 312 | 0.0 | 0.0 | 0.00 | 0.03 | 0.00 | 89 | 1018.1 |
| 20260902023708 | 58 | 312 | 0.0 | 0.0 | 0.00 | 0.03 | 0.00 | 89 | 1018.0 |
| 20260902022708 | 58 | 312 | 0.0 | 0.0 | 0.00 | 0.03 | 0.00 | 89 | 1017.9 |
| 20260902021708 | 58 | 312 | 0.0 | 0.0 | 0.00 | 0.03 | 0.00 | 89 | 1018.1 |
| 20260902020708 | 58 | 312 | 0.0 | 0.0 | 0.00 | 0.03 | 0.00 | 89 | 1018.1 |
| 20260902014708 | 58 | 312 | 0.0 | 0.0 | 0.00 | 0.03 | 0.00 | 90 | 1018.4 |
| 20260902013708 | 58 | 312 | 0.0 | 0.0 | 0.00 | 0.03 | 0.00 | 90 | 1018.5 |
| 20260902012708 | 58 | 312 | 0.0 | 0.0 | 0.00 | 0.03 | 0.00 | 90 | 1018.3 |
| 20260902011708 | 58 | 312 | 0.0 | 0.0 | 0.00 | 0.03 | 0.00 | 90 | 1018.1 |
| 20260902010708 | 58 | 312 | 0.0 | 0.0 | 0.00 | 0.03 | 0.00 | 90 | 1018.1 |
| 20260902004708 | 58 | 312 | 0.0 | 0.0 | 0.00 | 0.03 | 0.00 | 90 | 1018.2 |
| 20260902002709 | 57 | 312 | 0.0 | 0.0 | 0.00 | 0.03 | 0.00 | 90 | 1018.4 |
| 20260902001709 | 57 | 312 | 0.0 | 0.0 | 0.00 | 0.03 | 0.00 | 90 | 1018.5 |
| 20260901235709 | 57 | 312 | 0.0 | 0.0 | 0.00 | 0.03 | 0.00 | 90 | 1018.6 |
| 20260901234709 | 57 | 312 | 0.0 | 0.0 | 0.00 | 0.03 | 0.00 | 90 | 1018.5 |
| 20260901232709 | 56 | 312 | 0.0 | 0.0 | 0.00 | 0.03 | 0.00 | 90 | 1018.6 |
| 20260901231709 | 56 | 312 | 0.0 | 0.0 | 0.00 | 0.03 | 0.00 | 89 | 1018.7 |
| 20260901230709 | 56 | 312 | 0.0 | 0.0 | 0.00 | 0.03 | 0.00 | 89 | 1018.6 |
| 20260901224709 | 56 | 312 | 0.0 | 0.0 | 0.00 | 0.03 | 0.00 | 88 | 1018.6 |
| 20260901223709 | 57 | 312 | 0.0 | 0.0 | 0.00 | 0.03 | 0.00 | 89 | 1018.6 |
| 20260901222709 | 57 | 312 | 0.0 | 0.0 | 0.00 | 0.03 | 0.00 | 89 | 1018.8 |
| 20260901221709 | 57 | 312 | 0.0 | 0.0 | 0.00 | 0.03 | 0.00 | 89 | 1018.8 |
| 20260901215709 | 56 | 312 | 0.0 | 0.0 | 0.00 | 0.03 | 0.03 | 89 | 1019.0 |
| 20260901214709 | 56 | 312 | 0.0 | 0.0 | 0.00 | 0.03 | 0.03 | 89 | 1019.1 |
| 20260901213709 | 56 | 312 | 0.0 | 0.0 | 0.00 | 0.03 | 0.03 | 87 | 1019.1 |
| 20260901212709 | 56 | 312 | 0.0 | 0.0 | 0.00 | 0.03 | 0.03 | 87 | 1019.0 |
| 20260901211709 | 57 | 312 | 0.0 | 0.0 | 0.00 | 0.03 | 0.03 | 87 | 1018.9 |
| 20260901205710 | 57 | 312 | 0.0 | 0.0 | 0.00 | 0.03 | 0.03 | 86 | 1019.0 |
| 20260901204709 | 57 | 312 | 0.0 | 0.0 | 0.00 | 0.03 | 0.03 | 85 | 1018.9 |
| 20260901203710 | 58 | 312 | 0.0 | 0.0 | 0.00 | 0.03 | 0.03 | 85 | 1018.7 |
| 20260901202709 | 58 | 312 | 0.0 | 0.0 | 0.00 | 0.03 | 0.03 | 84 | 1018.7 |
| 20260901201710 | 59 | 312 | 0.0 | 0.0 | 0.00 | 0.03 | 0.03 | 84 | 1018.7 |
| 20260901200710 | 59 | 312 | 0.0 | 0.0 | 0.00 | 0.03 | 0.03 | 84 | 1018.6 |
| 20260901195710 | 60 | 312 | 0.0 | 0.0 | 0.00 | 0.03 | 0.03 | 83 | 1018.6 |
| 20260901193710 | 61 | 312 | 0.0 | 0.0 | 0.00 | 0.03 | 0.03 | 82 | 1018.4 |
| 20260901192710 | 61 | 312 | 0.0 | 0.0 | 0.00 | 0.03 | 0.03 | 81 | 1018.4 |
| 20260901190710 | 63 | 312 | 0.0 | 0.0 | 0.00 | 0.03 | 0.03 | 79 | 1018.5 |
| 20260901185710 | 64 | 312 | 0.0 | 1.0 | 0.00 | 0.03 | 0.03 | 78 | 1018.4 |
| 20260901184710 | 65 | 312 | 0.0 | 2.0 | 0.00 | 0.03 | 0.03 | 75 | 1018.3 |
| 20260901183710 | 66 | 312 | 0.0 | 0.0 | 0.00 | 0.03 | 0.03 | 72 | 1018.3 |
| 20260901182710 | 66 | 312 | 0.0 | 1.0 | 0.00 | 0.03 | 0.03 | 72 | 1018.4 |
| 20260901181710 | 67 | 312 | 0.0 | 2.0 | 0.00 | 0.03 | 0.03 | 71 | 1018.5 |
| 20260901180711 | 67 | 312 | 0.0 | 1.0 | 0.00 | 0.03 | 0.03 | 68 | 1018.4 |
| 20260901175710 | 67 | 312 | 0.0 | 1.0 | 0.00 | 0.03 | 0.03 | 67 | 1018.4 |
| 20260901174710 | 68 | 312 | 1.0 | 2.0 | 0.00 | 0.03 | 0.03 | 67 | 1018.4 |
| 20260901173710 | 68 | 312 | 0.0 | 2.0 | 0.00 | 0.03 | 0.03 | 67 | 1018.4 |
| 20260901171710 | 68 | 312 | 1.0 | 3.0 | 0.00 | 0.03 | 0.03 | 64 | 1018.3 |